Flag Weather past 2 weeks in Medina, Saudi Arabia

Now
68 °F

Sunny.


Feels Like: 68 °F
Forecast: 54 / 75 °F
Wind: No wind

Location: Madinah

Current Time: Nov 26, 2014 at 11:10:28 AM

Latest Report: Nov 26, 2014 at 10:00 AM


Visibility: 6 mi

Pressure: 30.12 "Hg

Humidity: 40%

Dew point: 43 °F

Location of MedinaLocation

Historic Weather in Medina — Graph

°F

Medina temperature yesterday

Maximum temperature yesterday: 75 °F (at 5:00 PM)
Minimum temperature yesterday: 63 °F (at 4:00 AM)
Average temperature yesterday: 68 °F

Past Weeks' High & Low Weather Summary

 TemperatureHumidityPressure
High90 °F (Nov 14, 3:00 PM)100% (Nov 23, 4:00 AM)30.21 "Hg (Nov 23, 4:00 AM)
Low55 °F (Nov 26, 7:00 AM)5% (Nov 14, 3:00 PM)29.89 "Hg (Nov 24, 1:00 PM)
Average75 °F35%30.04 "Hg
* Reported Nov 11 10:00 AM — Nov 26 10:00 AM, Medina, Weather by CustomWeather, © 2014

Note: Actual official high and low records may vary slightly from our data, if they occured in-between our weather recording intervals... More about our weather records

Advertising

Medina weather history for previous 24 hours

 ConditionsComfort  
Time TempWeatherWind HumidityBarometerVisibility
10:00 AM
Nov 26
68 °FSunny.No wind40%30.12 "Hg6 mi
9:00 AM63 °FSunny.No wind49%30.12 "Hg6 mi
8:00 AM59 °FSunny.No wind55%30.09 "Hg4 mi
7:00 AM55 °FSunny.No wind55%30.09 "Hg5 mi
6:00 AM57 °FClear.7 mph48%30.07 "Hg10 mi
5:00 AM57 °FClear.3 mph55%30.04 "Hg10 mi
4:00 AM59 °FClear.8 mph51%30.04 "Hg10 mi
3:00 AM61 °FClear.3 mph48%30.04 "Hg10 mi
2:00 AM61 °FClear.5 mph45%30.04 "Hg10 mi
1:00 AM63 °FClear.5 mph42%30.04 "Hg10 mi
12:00 AM66 °FClear.3 mph37%30.04 "Hg10 mi
11:00 PM
Nov 25
66 °FClear.3 mph37%30.04 "Hg10 mi
10:00 PM70 °FClear.6 mph31%30.04 "Hg10 mi
9:00 PM72 °FClear.7 mph27%30.04 "Hg10 mi
8:00 PM72 °FClear.7 mph27%30.04 "Hg10 mi
7:00 PM73 °FClear.8 mph25%30.01 "Hg10 mi
6:00 PM73 °FPassing clouds.5 mph25%30.01 "HgN/A
5:00 PM75 °FPassing clouds.No wind24%29.98 "HgN/A
4:00 PM73 °FPassing clouds.8 mph27%29.98 "HgN/A
3:00 PM73 °FPassing clouds.8 mph27%29.98 "HgN/A
2:00 PM73 °FPassing clouds.12 mph27%30.01 "Hg6 mi
1:00 PM72 °FPassing clouds.13 mph29%30.01 "Hg6 mi
12:00 PM70 °FPassing clouds.9 mph33%30.04 "Hg6 mi
11:00 AM68 °FPassing clouds.No wind35%30.07 "Hg5 mi
Weather by CustomWeather, © 2014

See weather overviewHow to use our weather pages